| time (UTC) | temp F | wind direction | speed knots | gust knots | rain 1hr in | rain 24hr in | rain mn in | humidity % | barometer mb |
| 20260905061014 | 74 | 226 | 0.9 | 3.5 | 0.00 | 0.00 | 0.00 | 27 | 1015.6 |
| 20260905060514 | 74 | 226 | 0.9 | 7.0 | 0.00 | 0.00 | 0.00 | 27 | 1015.5 |
| 20260905060014 | 74 | 235 | 0.0 | 3.5 | 0.00 | 0.00 | 0.00 | 28 | 1015.5 |
| 20260905055514 | 74 | 238 | 0.0 | 4.3 | 0.00 | 0.00 | 0.00 | 28 | 1015.5 |
| 20260905055014 | 74 | 236 | 0.0 | 1.7 | 0.00 | 0.00 | 0.00 | 28 | 1015.4 |
| 20260905054514 | 74 | 237 | 0.0 | 5.2 | 0.00 | 0.00 | 0.00 | 27 | 1015.4 |
| 20260905054014 | 75 | 235 | 0.0 | 1.7 | 0.00 | 0.00 | 0.00 | 28 | 1015.3 |
| 20260905053514 | 75 | 234 | 0.0 | 2.6 | 0.00 | 0.00 | 0.00 | 27 | 1015.3 |
| 20260905053014 | 75 | 236 | 0.0 | 4.3 | 0.00 | 0.00 | 0.00 | 27 | 1015.3 |
| 20260905052514 | 75 | 236 | 0.0 | 1.7 | 0.00 | 0.00 | 0.00 | 27 | 1015.3 |
| 20260905052014 | 75 | 236 | 0.0 | 2.6 | 0.00 | 0.00 | 0.00 | 27 | 1015.3 |
| 20260905051514 | 75 | 236 | 0.0 | 3.5 | 0.00 | 0.00 | 0.00 | 27 | 1015.1 |
| 20260905051014 | 74 | 236 | 0.0 | 4.3 | 0.00 | 0.00 | 0.00 | 27 | 1015.2 |
| 20260905050514 | 74 | 236 | 0.0 | 6.1 | 0.00 | 0.00 | 0.00 | 27 | 1015.2 |
| 20260905050014 | 74 | 246 | 0.0 | 1.7 | 0.00 | 0.00 | 0.00 | 26 | 1015.1 |
| 20260905045514 | 74 | 246 | 0.0 | 1.7 | 0.00 | 0.00 | 0.00 | 26 | 1015.1 |
| 20260905045014 | 74 | 246 | 0.0 | 0.9 | 0.00 | 0.00 | 0.00 | 26 | 1015.1 |
| 20260905044514 | 74 | 246 | 0.0 | 1.7 | 0.00 | 0.00 | 0.00 | 26 | 1015.2 |
| 20260905044014 | 74 | 246 | 0.0 | 1.7 | 0.00 | 0.00 | 0.00 | 26 | 1015.3 |
| 20260905043514 | 74 | 246 | 0.0 | 4.3 | 0.00 | 0.00 | 0.00 | 25 | 1015.2 |
| 20260905043014 | 74 | 246 | 0.0 | 0.9 | 0.00 | 0.00 | 0.00 | 25 | 1015.1 |
| 20260905042514 | 74 | 246 | 0.0 | 0.0 | 0.00 | 0.00 | 0.00 | 25 | 1015.1 |
| 20260905042014 | 74 | 246 | 0.0 | 0.0 | 0.00 | 0.00 | 0.00 | 25 | 1015.0 |
| 20260905041514 | 74 | 246 | 0.0 | 0.0 | 0.00 | 0.00 | 0.00 | 25 | 1015.0 |
| 20260905041014 | 74 | 246 | 0.0 | 0.0 | 0.00 | 0.00 | 0.00 | 24 | 1014.9 |
| 20260905040514 | 74 | 246 | 0.0 | 0.0 | 0.00 | 0.00 | 0.00 | 24 | 1014.8 |
| 20260905040014 | 74 | 246 | 0.0 | 0.0 | 0.00 | 0.00 | 0.00 | 25 | 1014.7 |
| 20260905035514 | 74 | 246 | 0.0 | 0.0 | 0.00 | 0.00 | 0.00 | 25 | 1014.6 |
| 20260905035014 | 74 | 246 | 0.0 | 0.0 | 0.00 | 0.00 | 0.00 | 24 | 1014.6 |
| 20260905034514 | 74 | 246 | 0.0 | 0.0 | 0.00 | 0.00 | 0.00 | 24 | 1014.5 |
| 20260905034014 | 74 | 246 | 0.0 | 0.0 | 0.00 | 0.00 | 0.00 | 24 | 1014.5 |
| 20260905033514 | 75 | 246 | 0.0 | 0.0 | 0.00 | 0.00 | 0.00 | 24 | 1014.4 |
| 20260905033014 | 75 | 246 | 0.0 | 0.0 | 0.00 | 0.00 | 0.00 | 24 | 1014.4 |
| 20260905032514 | 76 | 246 | 0.0 | 0.0 | 0.00 | 0.00 | 0.00 | 23 | 1014.5 |
| 20260905032014 | 76 | 246 | 0.0 | 2.6 | 0.00 | 0.00 | 0.00 | 23 | 1014.3 |
| 20260905031514 | 76 | 247 | 0.0 | 2.6 | 0.00 | 0.00 | 0.00 | 23 | 1014.3 |
| 20260905031014 | 76 | 247 | 0.0 | 0.0 | 0.00 | 0.00 | 0.00 | 24 | 1014.2 |
| 20260905030514 | 76 | 247 | 0.0 | 0.0 | 0.00 | 0.00 | 0.00 | 24 | 1014.3 |
| 20260905030014 | 77 | 247 | 0.0 | 0.0 | 0.00 | 0.00 | 0.00 | 24 | 1014.2 |
| 20260905025514 | 77 | 247 | 0.0 | 0.0 | 0.00 | 0.00 | 0.00 | 23 | 1014.1 |
| 20260905025014 | 78 | 247 | 0.0 | 0.0 | 0.00 | 0.00 | 0.00 | 23 | 1014.0 |
| 20260905024514 | 78 | 247 | 0.0 | 0.0 | 0.00 | 0.00 | 0.00 | 23 | 1013.9 |
| 20260905024014 | 79 | 247 | 0.0 | 0.0 | 0.00 | 0.00 | 0.00 | 23 | 1013.8 |
| 20260905023514 | 79 | 247 | 0.0 | 0.0 | 0.00 | 0.00 | 0.00 | 22 | 1013.7 |
| 20260905022514 | 79 | 275 | 0.9 | 9.6 | 0.00 | 0.00 | 0.00 | 22 | 1013.8 |
| 20260905022014 | 79 | 236 | 0.9 | 4.3 | 0.00 | 0.00 | 0.00 | 22 | 1013.7 |
| 20260905021514 | 79 | 240 | 0.0 | 5.2 | 0.00 | 0.00 | 0.00 | 22 | 1013.6 |
| 20260905021014 | 79 | 214 | 0.0 | 0.0 | 0.00 | 0.00 | 0.00 | 23 | 1013.5 |
| 20260905020515 | 80 | 213 | 0.0 | 1.7 | 0.00 | 0.00 | 0.00 | 23 | 1013.5 |
| 20260905020014 | 80 | 215 | 0.0 | 2.6 | 0.00 | 0.00 | 0.00 | 23 | 1013.5 |
| 20260905015514 | 80 | 223 | 0.0 | 4.3 | 0.00 | 0.00 | 0.00 | 22 | 1013.3 |
| 20260905015014 | 80 | 225 | 0.9 | 3.5 | 0.00 | 0.00 | 0.00 | 22 | 1013.5 |
| 20260905014514 | 80 | 218 | 0.9 | 6.1 | 0.00 | 0.00 | 0.00 | 22 | 1013.4 |
| 20260905014014 | 80 | 217 | 0.9 | 4.3 | 0.00 | 0.00 | 0.00 | 22 | 1013.5 |
| 20260905013514 | 80 | 192 | 0.9 | 6.1 | 0.00 | 0.00 | 0.00 | 22 | 1013.4 |
| 20260905013014 | 81 | 184 | 0.9 | 7.0 | 0.00 | 0.00 | 0.00 | 21 | 1013.5 |
| 20260905012515 | 81 | 234 | 0.9 | 5.2 | 0.00 | 0.00 | 0.00 | 22 | 1013.5 |
| 20260905012014 | 81 | 258 | 0.0 | 4.3 | 0.00 | 0.00 | 0.00 | 22 | 1013.5 |
| 20260905011514 | 81 | 254 | 0.9 | 3.5 | 0.00 | 0.00 | 0.00 | 22 | 1013.4 |
| 20260905011015 | 81 | 255 | 0.9 | 2.6 | 0.00 | 0.00 | 0.00 | 22 | 1013.4 |
| 20260905010514 | 81 | 255 | 0.9 | 4.3 | 0.00 | 0.00 | 0.00 | 22 | 1013.4 |
| 20260905010015 | 81 | 256 | 0.9 | 3.5 | 0.00 | 0.00 | 0.00 | 22 | 1013.3 |
| 20260905005515 | 81 | 256 | 0.0 | 5.2 | 0.00 | 0.00 | 0.00 | 22 | 1013.4 |
| 20260905005015 | 82 | 216 | 0.9 | 2.6 | 0.00 | 0.00 | 0.00 | 22 | 1013.3 |
| 20260905004515 | 82 | 216 | 1.7 | 6.1 | 0.00 | 0.00 | 0.00 | 21 | 1013.3 |
| 20260905004015 | 82 | 213 | 1.7 | 5.2 | 0.00 | 0.00 | 0.00 | 21 | 1013.4 |
| 20260905003515 | 82 | 240 | 0.9 | 8.7 | 0.00 | 0.00 | 0.00 | 21 | 1013.3 |
| 20260905003015 | 82 | 280 | 0.9 | 5.2 | 0.00 | 0.00 | 0.00 | 21 | 1013.3 |
| 20260905002515 | 82 | 220 | 0.9 | 5.2 | 0.00 | 0.00 | 0.00 | 21 | 1013.3 |
| 20260905002015 | 82 | 225 | 1.7 | 6.1 | 0.00 | 0.00 | 0.00 | 21 | 1013.3 |
| 20260905001515 | 82 | 236 | 1.7 | 6.1 | 0.00 | 0.00 | 0.00 | 20 | 1013.4 |
| 20260905001015 | 82 | 192 | 1.7 | 4.3 | 0.00 | 0.00 | 0.00 | 21 | 1013.3 |
| 20260905000515 | 83 | 218 | 1.7 | 5.2 | 0.00 | 0.00 | 0.00 | 20 | 1013.4 |
| 20260905000015 | 83 | 243 | 1.7 | 7.8 | 0.00 | 0.00 | 0.00 | 20 | 1013.3 |
| 20260904235515 | 83 | 211 | 0.9 | 6.1 | 0.00 | 0.00 | 0.00 | 19 | 1013.1 |
| 20260904235015 | 83 | 249 | 0.9 | 5.2 | 0.00 | 0.00 | 0.00 | 20 | 1013.3 |
| 20260904234515 | 84 | 252 | 1.7 | 5.2 | 0.00 | 0.00 | 0.00 | 19 | 1013.4 |
| 20260904234015 | 84 | 259 | 1.7 | 6.1 | 0.00 | 0.00 | 0.00 | 19 | 1013.3 |
| 20260904233515 | 84 | 281 | 1.7 | 7.8 | 0.00 | 0.00 | 0.00 | 19 | 1013.4 |
| 20260904233015 | 84 | 203 | 2.6 | 4.3 | 0.00 | 0.00 | 0.00 | 19 | 1013.2 |
| 20260904232515 | 84 | 211 | 2.6 | 8.7 | 0.00 | 0.00 | 0.00 | 19 | 1013.4 |
| 20260904232015 | 84 | 204 | 1.7 | 8.7 | 0.00 | 0.00 | 0.00 | 19 | 1013.4 |
| 20260904231515 | 84 | 206 | 1.7 | 7.0 | 0.00 | 0.00 | 0.00 | 18 | 1013.5 |
| 20260904231015 | 84 | 217 | 1.7 | 3.5 | 0.00 | 0.00 | 0.00 | 19 | 1013.4 |
| 20260904230515 | 84 | 217 | 2.6 | 4.3 | 0.00 | 0.00 | 0.00 | 18 | 1013.5 |
| 20260904230015 | 85 | 237 | 1.7 | 5.2 | 0.00 | 0.00 | 0.00 | 18 | 1013.6 |
| 20260904225515 | 85 | 221 | 1.7 | 3.5 | 0.00 | 0.00 | 0.00 | 18 | 1013.6 |
| 20260904225015 | 85 | 223 | 1.7 | 8.7 | 0.00 | 0.00 | 0.00 | 18 | 1013.7 |
| 20260904224515 | 85 | 281 | 2.6 | 8.7 | 0.00 | 0.00 | 0.00 | 18 | 1013.6 |
| 20260904224015 | 85 | 229 | 1.7 | 5.2 | 0.00 | 0.00 | 0.00 | 18 | 1013.5 |
| 20260904223515 | 84 | 238 | 1.7 | 4.3 | 0.00 | 0.00 | 0.00 | 18 | 1013.6 |
| 20260904223015 | 84 | 242 | 2.6 | 5.2 | 0.00 | 0.00 | 0.00 | 18 | 1013.6 |
| 20260904222515 | 84 | 191 | 1.7 | 7.8 | 0.00 | 0.00 | 0.00 | 18 | 1013.8 |
| 20260904222015 | 84 | 211 | 2.6 | 4.3 | 0.00 | 0.00 | 0.00 | 18 | 1013.7 |
| 20260904221515 | 84 | 217 | 2.6 | 7.0 | 0.00 | 0.00 | 0.00 | 17 | 1013.9 |
| 20260904221015 | 85 | 234 | 1.7 | 6.1 | 0.00 | 0.00 | 0.00 | 17 | 1014.0 |
| 20260904220515 | 85 | 250 | 1.7 | 4.3 | 0.00 | 0.00 | 0.00 | 18 | 1014.1 |
| 20260904220015 | 84 | 229 | 1.7 | 7.8 | 0.00 | 0.00 | 0.00 | 18 | 1014.0 |
| 20260904215515 | 85 | 200 | 1.7 | 6.1 | 0.00 | 0.00 | 0.00 | 17 | 1014.1 |
| 20260904215015 | 85 | 222 | 2.6 | 4.3 | 0.00 | 0.00 | 0.00 | 18 | 1014.2 |
| 20260904214515 | 84 | 221 | 2.6 | 7.0 | 0.00 | 0.00 | 0.00 | 17 | 1014.2 |
| 20260904214015 | 85 | 243 | 1.7 | 7.0 | 0.00 | 0.00 | 0.00 | 18 | 1014.2 |
| 20260904213515 | 84 | 213 | 1.7 | 5.2 | 0.00 | 0.00 | 0.00 | 18 | 1014.3 |
| 20260904213015 | 84 | 215 | 1.7 | 5.2 | 0.00 | 0.00 | 0.00 | 18 | 1014.3 |
| 20260904212515 | 84 | 204 | 1.7 | 7.8 | 0.00 | 0.00 | 0.00 | 17 | 1014.3 |
| 20260904212015 | 84 | 237 | 1.7 | 7.0 | 0.00 | 0.00 | 0.00 | 17 | 1014.4 |
| 20260904211515 | 84 | 220 | 1.7 | 7.0 | 0.00 | 0.00 | 0.00 | 17 | 1014.4 |
| 20260904211015 | 84 | 208 | 1.7 | 7.8 | 0.00 | 0.00 | 0.00 | 17 | 1014.5 |
| 20260904210515 | 84 | 264 | 1.7 | 4.3 | 0.00 | 0.00 | 0.00 | 18 | 1014.7 |
| 20260904210015 | 84 | 261 | 1.7 | 6.1 | 0.00 | 0.00 | 0.00 | 18 | 1014.7 |
| 20260904205515 | 84 | 272 | 1.7 | 11.3 | 0.00 | 0.00 | 0.00 | 18 | 1014.8 |
| 20260904205015 | 84 | 263 | 0.9 | 5.2 | 0.00 | 0.00 | 0.00 | 17 | 1014.8 |
| 20260904204515 | 84 | 270 | 0.9 | 3.5 | 0.00 | 0.00 | 0.00 | 17 | 1014.7 |
| 20260904204015 | 83 | 206 | 0.9 | 4.3 | 0.00 | 0.00 | 0.00 | 17 | 1014.8 |
| 20260904203515 | 83 | 277 | 1.7 | 7.0 | 0.00 | 0.00 | 0.00 | 18 | 1014.9 |
| 20260904203015 | 83 | 209 | 1.7 | 7.0 | 0.00 | 0.00 | 0.00 | 19 | 1014.8 |
| 20260904202515 | 83 | 256 | 1.7 | 7.0 | 0.00 | 0.00 | 0.00 | 18 | 1014.7 |
| 20260904202015 | 82 | 233 | 1.7 | 7.0 | 0.00 | 0.00 | 0.00 | 19 | 1015.0 |
| 20260904201515 | 82 | 236 | 1.7 | 7.8 | 0.00 | 0.00 | 0.00 | 18 | 1015.0 |
| 20260904201015 | 82 | 240 | 1.7 | 5.2 | 0.00 | 0.00 | 0.00 | 18 | 1015.1 |
| 20260904200515 | 82 | 249 | 1.7 | 7.8 | 0.00 | 0.00 | 0.00 | 18 | 1015.2 |
| 20260904200015 | 82 | 242 | 1.7 | 7.8 | 0.00 | 0.00 | 0.00 | 18 | 1015.3 |
| 20260904195515 | 82 | 257 | 1.7 | 10.4 | 0.00 | 0.00 | 0.00 | 17 | 1015.4 |
| 20260904195015 | 82 | 190 | 1.7 | 7.8 | 0.00 | 0.00 | 0.00 | 18 | 1015.4 |
| 20260904194515 | 82 | 191 | 2.6 | 6.1 | 0.00 | 0.00 | 0.00 | 20 | 1015.1 |
| 20260904194015 | 82 | 210 | 1.7 | 9.6 | 0.00 | 0.00 | 0.00 | 19 | 1015.4 |
| 20260904193515 | 82 | 225 | 1.7 | 9.6 | 0.00 | 0.00 | 0.00 | 20 | 1015.4 |
| 20260904193015 | 81 | 220 | 1.7 | 8.7 | 0.00 | 0.00 | 0.00 | 21 | 1015.3 |
| 20260904192515 | 81 | 233 | 1.7 | 11.3 | 0.00 | 0.00 | 0.00 | 20 | 1015.4 |
| 20260904192015 | 81 | 259 | 0.9 | 4.3 | 0.00 | 0.00 | 0.00 | 21 | 1015.4 |
| 20260904191515 | 81 | 266 | 1.7 | 3.5 | 0.00 | 0.00 | 0.00 | 20 | 1015.5 |
| 20260904191015 | 81 | 261 | 1.7 | 6.1 | 0.00 | 0.00 | 0.00 | 20 | 1015.5 |
| 20260904190515 | 81 | 211 | 1.7 | 5.2 | 0.00 | 0.00 | 0.00 | 20 | 1015.6 |
| 20260904190015 | 81 | 220 | 2.6 | 6.1 | 0.00 | 0.00 | 0.00 | 20 | 1015.7 |
| 20260904185515 | 80 | 211 | 2.6 | 7.0 | 0.00 | 0.00 | 0.00 | 20 | 1015.5 |
| 20260904185015 | 80 | 215 | 1.7 | 8.7 | 0.00 | 0.00 | 0.00 | 21 | 1015.8 |
| 20260904184515 | 80 | 248 | 1.7 | 7.8 | 0.00 | 0.00 | 0.00 | 21 | 1015.8 |
| 20260904184015 | 79 | 205 | 1.7 | 6.1 | 0.00 | 0.00 | 0.00 | 21 | 1015.9 |
| 20260904183515 | 79 | 230 | 1.7 | 6.1 | 0.00 | 0.00 | 0.00 | 21 | 1016.0 |
| 20260904183015 | 79 | 193 | 1.7 | 6.1 | 0.00 | 0.00 | 0.00 | 22 | 1016.2 |
| 20260904182515 | 79 | 274 | 2.6 | 6.1 | 0.00 | 0.00 | 0.00 | 22 | 1016.0 |
| 20260904182015 | 79 | 240 | 2.6 | 11.3 | 0.00 | 0.00 | 0.00 | 22 | 1016.2 |
| 20260904181515 | 79 | 219 | 1.7 | 5.2 | 0.00 | 0.00 | 0.00 | 22 | 1016.2 |
| 20260904181015 | 79 | 248 | 1.7 | 4.3 | 0.00 | 0.00 | 0.00 | 22 | 1016.3 |
| 20260904180515 | 79 | 217 | 2.6 | 7.0 | 0.00 | 0.00 | 0.00 | 22 | 1016.2 |
| 20260904180015 | 79 | 273 | 2.6 | 12.2 | 0.00 | 0.00 | 0.00 | 21 | 1016.3 |
| 20260904175515 | 79 | 240 | 1.7 | 7.8 | 0.00 | 0.00 | 0.00 | 23 | 1016.4 |
| 20260904175015 | 79 | 211 | 1.7 | 7.0 | 0.00 | 0.00 | 0.00 | 24 | 1016.5 |
| 20260904174515 | 78 | 260 | 1.7 | 8.7 | 0.00 | 0.00 | 0.00 | 26 | 1016.3 |
| 20260904174015 | 78 | 214 | 1.7 | 4.3 | 0.00 | 0.00 | 0.00 | 26 | 1016.3 |
| 20260904173515 | 78 | 225 | 2.6 | 9.6 | 0.00 | 0.00 | 0.00 | 27 | 1016.4 |
| 20260904173015 | 77 | 268 | 2.6 | 7.0 | 0.00 | 0.00 | 0.00 | 27 | 1016.5 |
| 20260904172515 | 77 | 221 | 2.6 | 9.6 | 0.00 | 0.00 | 0.00 | 27 | 1016.5 |
| 20260904172015 | 77 | 234 | 1.7 | 10.4 | 0.00 | 0.00 | 0.00 | 27 | 1016.4 |
| 20260904171515 | 77 | 240 | 2.6 | 8.7 | 0.00 | 0.00 | 0.00 | 27 | 1016.5 |
| 20260904171015 | 77 | 245 | 2.6 | 10.4 | 0.00 | 0.00 | 0.00 | 27 | 1016.5 |
| 20260904170515 | 77 | 221 | 2.6 | 8.7 | 0.00 | 0.00 | 0.00 | 28 | 1016.4 |
| 20260904170015 | 77 | 222 | 1.7 | 7.0 | 0.00 | 0.00 | 0.00 | 27 | 1016.7 |
| 20260904165515 | 76 | 227 | 1.7 | 4.3 | 0.00 | 0.00 | 0.00 | 27 | 1016.5 |
| 20260904165015 | 76 | 207 | 1.7 | 6.1 | 0.00 | 0.00 | 0.00 | 27 | 1016.5 |
| 20260904164515 | 76 | 206 | 0.9 | 6.1 | 0.00 | 0.00 | 0.00 | 27 | 1016.6 |
| 20260904164015 | 75 | 234 | 0.9 | 4.3 | 0.00 | 0.00 | 0.00 | 28 | 1016.6 |
| 20260904163515 | 75 | 238 | 0.9 | 5.2 | 0.00 | 0.00 | 0.00 | 28 | 1016.8 |
| 20260904163015 | 75 | 270 | 1.7 | 11.3 | 0.00 | 0.00 | 0.00 | 27 | 1016.7 |
| 20260904162515 | 75 | 244 | 0.9 | 2.6 | 0.00 | 0.00 | 0.00 | 27 | 1016.8 |
| 20260904162015 | 75 | 250 | 1.7 | 7.0 | 0.00 | 0.00 | 0.00 | 29 | 1016.7 |
| 20260904161515 | 75 | 251 | 1.7 | 5.2 | 0.00 | 0.00 | 0.00 | 30 | 1016.7 |
| 20260904161015 | 75 | 289 | 0.9 | 4.3 | 0.00 | 0.00 | 0.00 | 29 | 1016.7 |
| 20260904160515 | 74 | 272 | 0.9 | 7.8 | 0.00 | 0.00 | 0.00 | 29 | 1016.7 |
| 20260904160015 | 74 | 150 | 1.7 | 6.1 | 0.00 | 0.00 | 0.00 | 29 | 1016.7 |
| 20260904155515 | 74 | 217 | 0.9 | 5.2 | 0.00 | 0.00 | 0.00 | 27 | 1016.5 |
| 20260904155015 | 74 | 236 | 0.9 | 3.5 | 0.00 | 0.00 | 0.00 | 28 | 1016.5 |
| 20260904154515 | 74 | 236 | 0.9 | 4.3 | 0.00 | 0.00 | 0.00 | 27 | 1016.5 |
| 20260904154015 | 74 | 237 | 0.9 | 3.5 | 0.00 | 0.00 | 0.00 | 27 | 1016.6 |
| 20260904153515 | 73 | 238 | 0.0 | 4.3 | 0.00 | 0.00 | 0.00 | 27 | 1016.5 |
| 20260904153015 | 73 | 238 | 0.0 | 2.6 | 0.00 | 0.00 | 0.00 | 28 | 1016.6 |
| 20260904152515 | 73 | 238 | 0.0 | 5.2 | 0.00 | 0.00 | 0.00 | 27 | 1016.6 |
| 20260904152015 | 73 | 238 | 0.0 | 3.5 | 0.00 | 0.00 | 0.00 | 26 | 1016.6 |
| 20260904151515 | 72 | 238 | 0.0 | 4.3 | 0.00 | 0.00 | 0.00 | 27 | 1016.7 |
| 20260904151015 | 72 | 240 | 0.9 | 3.5 | 0.00 | 0.00 | 0.00 | 27 | 1016.6 |
| 20260904150515 | 72 | 231 | 0.9 | 4.3 | 0.00 | 0.00 | 0.00 | 27 | 1016.6 |
| 20260904150015 | 72 | 232 | 0.0 | 3.5 | 0.00 | 0.00 | 0.00 | 26 | 1016.6 |
| 20260904145515 | 71 | 233 | 0.0 | 2.6 | 0.00 | 0.00 | 0.00 | 26 | 1016.6 |
| 20260904145015 | 71 | 234 | 0.0 | 1.7 | 0.00 | 0.00 | 0.00 | 26 | 1016.5 |
| 20260904144515 | 71 | 233 | 0.0 | 2.6 | 0.00 | 0.00 | 0.00 | 25 | 1016.5 |
| 20260904144016 | 71 | 233 | 0.0 | 2.6 | 0.00 | 0.00 | 0.00 | 26 | 1016.5 |
| 20260904143515 | 70 | 233 | 0.0 | 2.6 | 0.00 | 0.00 | 0.00 | 26 | 1016.4 |
| 20260904143016 | 70 | 234 | 0.9 | 1.7 | 0.00 | 0.00 | 0.00 | 26 | 1016.4 |
| 20260904142516 | 69 | 234 | 0.9 | 5.2 | 0.00 | 0.00 | 0.00 | 26 | 1016.4 |
| 20260904142016 | 69 | 237 | 0.9 | 6.1 | 0.00 | 0.00 | 0.00 | 26 | 1016.5 |
| 20260904141516 | 69 | 236 | 0.0 | 3.5 | 0.00 | 0.00 | 0.00 | 25 | 1016.5 |
| 20260904141016 | 69 | 236 | 0.0 | 0.0 | 0.00 | 0.00 | 0.00 | 26 | 1016.5 |
| 20260904140516 | 69 | 236 | 0.0 | 2.6 | 0.00 | 0.00 | 0.00 | 26 | 1016.4 |
| 20260904140016 | 69 | 236 | 0.0 | 2.6 | 0.00 | 0.00 | 0.00 | 26 | 1016.4 |
| 20260904135516 | 68 | 236 | 0.0 | 2.6 | 0.00 | 0.00 | 0.00 | 26 | 1016.3 |
| 20260904135016 | 68 | 238 | 0.0 | 4.3 | 0.00 | 0.00 | 0.00 | 25 | 1016.3 |
| 20260904134516 | 67 | 234 | 0.0 | 1.7 | 0.00 | 0.00 | 0.00 | 25 | 1016.2 |
| 20260904134016 | 67 | 234 | 0.0 | 2.6 | 0.00 | 0.00 | 0.00 | 25 | 1016.2 |
| 20260904133516 | 67 | 236 | 0.0 | 0.9 | 0.00 | 0.00 | 0.00 | 25 | 1016.1 |
| 20260904133016 | 66 | 237 | 0.0 | 1.7 | 0.00 | 0.00 | 0.00 | 24 | 1016.0 |
| 20260904132516 | 66 | 237 | 0.9 | 5.2 | 0.00 | 0.00 | 0.00 | 24 | 1016.0 |
| 20260904132016 | 66 | 239 | 0.9 | 3.5 | 0.00 | 0.00 | 0.00 | 24 | 1015.9 |
| 20260904131516 | 66 | 240 | 0.9 | 5.2 | 0.00 | 0.00 | 0.00 | 23 | 1015.9 |
| 20260904131016 | 66 | 235 | 0.9 | 7.0 | 0.00 | 0.00 | 0.00 | 23 | 1015.8 |
| 20260904130516 | 66 | 257 | 0.9 | 5.2 | 0.00 | 0.00 | 0.00 | 23 | 1015.7 |
| 20260904130016 | 66 | 227 | 0.9 | 7.0 | 0.00 | 0.00 | 0.00 | 22 | 1015.7 |
| 20260904125516 | 66 | 209 | 0.9 | 3.5 | 0.00 | 0.00 | 0.00 | 21 | 1015.7 |
| 20260904125016 | 66 | 208 | 0.9 | 4.3 | 0.00 | 0.00 | 0.00 | 20 | 1015.6 |
| 20260904124516 | 66 | 211 | 0.9 | 4.3 | 0.00 | 0.00 | 0.00 | 20 | 1015.5 |
| 20260904124016 | 66 | 208 | 0.9 | 6.1 | 0.00 | 0.00 | 0.00 | 20 | 1015.4 |
| 20260904123516 | 66 | 209 | 0.9 | 4.3 | 0.00 | 0.00 | 0.00 | 20 | 1015.4 |
| 20260904123016 | 66 | 208 | 0.9 | 2.6 | 0.00 | 0.00 | 0.00 | 20 | 1015.2 |
| 20260904122516 | 66 | 208 | 0.9 | 5.2 | 0.00 | 0.00 | 0.00 | 19 | 1015.2 |
| 20260904122016 | 66 | 205 | 0.9 | 3.5 | 0.00 | 0.00 | 0.00 | 20 | 1015.1 |
| 20260904121516 | 66 | 203 | 0.0 | 2.6 | 0.00 | 0.00 | 0.00 | 20 | 1015.1 |
| 20260904121016 | 66 | 202 | 0.9 | 2.6 | 0.00 | 0.00 | 0.00 | 19 | 1015.1 |
| 20260904120516 | 66 | 202 | 0.9 | 3.5 | 0.00 | 0.00 | 0.00 | 19 | 1015.1 |
| 20260904120016 | 66 | 205 | 1.7 | 5.2 | 0.00 | 0.00 | 0.00 | 19 | 1014.9 |
| 20260904115516 | 66 | 202 | 0.9 | 5.2 | 0.00 | 0.00 | 0.00 | 19 | 1014.9 |
| 20260904115016 | 66 | 203 | 0.9 | 3.5 | 0.00 | 0.00 | 0.00 | 20 | 1014.8 |
| 20260904114516 | 66 | 205 | 0.9 | 3.5 | 0.00 | 0.00 | 0.00 | 19 | 1014.9 |
| 20260904114016 | 66 | 211 | 1.7 | 3.5 | 0.00 | 0.00 | 0.00 | 19 | 1014.8 |
| 20260904113516 | 67 | 212 | 0.9 | 3.5 | 0.00 | 0.00 | 0.00 | 18 | 1014.8 |
| 20260904113016 | 67 | 212 | 0.9 | 2.6 | 0.00 | 0.00 | 0.00 | 18 | 1014.8 |
| 20260904112516 | 67 | 213 | 0.9 | 4.3 | 0.00 | 0.00 | 0.00 | 18 | 1014.8 |
| 20260904112016 | 68 | 213 | 0.9 | 4.3 | 0.00 | 0.00 | 0.00 | 18 | 1014.8 |
| 20260904111516 | 68 | 213 | 0.9 | 3.5 | 0.00 | 0.00 | 0.00 | 18 | 1014.8 |
| 20260904111016 | 68 | 230 | 1.7 | 2.6 | 0.00 | 0.00 | 0.00 | 18 | 1014.8 |
| 20260904110516 | 68 | 239 | 1.7 | 6.1 | 0.00 | 0.00 | 0.00 | 18 | 1014.8 |
| 20260904110016 | 68 | 239 | 1.7 | 4.3 | 0.00 | 0.00 | 0.00 | 18 | 1014.7 |
| 20260904105516 | 68 | 242 | 0.9 | 5.2 | 0.00 | 0.00 | 0.00 | 17 | 1014.7 |
| 20260904105016 | 68 | 243 | 0.9 | 5.2 | 0.00 | 0.00 | 0.00 | 18 | 1014.5 |
| 20260904104516 | 68 | 238 | 0.9 | 5.2 | 0.00 | 0.00 | 0.00 | 17 | 1014.6 |
| 20260904104016 | 68 | 240 | 1.7 | 3.5 | 0.00 | 0.00 | 0.00 | 18 | 1014.5 |
| 20260904103516 | 68 | 241 | 1.7 | 7.0 | 0.00 | 0.00 | 0.00 | 17 | 1014.5 |
| 20260904103016 | 68 | 242 | 1.7 | 3.5 | 0.00 | 0.00 | 0.00 | 17 | 1014.6 |
| 20260904102516 | 68 | 249 | 0.9 | 6.1 | 0.00 | 0.00 | 0.00 | 17 | 1014.6 |
| 20260904102016 | 68 | 249 | 0.9 | 6.1 | 0.00 | 0.00 | 0.00 | 17 | 1014.6 |
| 20260904101516 | 68 | 252 | 0.9 | 2.6 | 0.00 | 0.00 | 0.00 | 18 | 1014.5 |
| 20260904101016 | 68 | 252 | 1.7 | 3.5 | 0.00 | 0.00 | 0.00 | 18 | 1014.5 |
| 20260904100516 | 68 | 252 | 0.9 | 4.3 | 0.00 | 0.00 | 0.00 | 17 | 1014.4 |
| 20260904100016 | 67 | 252 | 0.9 | 4.3 | 0.00 | 0.00 | 0.00 | 18 | 1014.4 |
| 20260904095516 | 67 | 253 | 0.9 | 3.5 | 0.00 | 0.00 | 0.00 | 18 | 1014.4 |
| 20260904095016 | 67 | 253 | 0.0 | 2.6 | 0.00 | 0.00 | 0.00 | 18 | 1014.4 |
| 20260904094516 | 67 | 254 | 0.0 | 0.9 | 0.00 | 0.00 | 0.00 | 18 | 1014.5 |
| 20260904094016 | 67 | 254 | 0.0 | 1.7 | 0.00 | 0.00 | 0.00 | 18 | 1014.5 |
| 20260904093516 | 67 | 253 | 0.0 | 2.6 | 0.00 | 0.00 | 0.00 | 18 | 1014.5 |
| 20260904093016 | 67 | 254 | 0.0 | 2.6 | 0.00 | 0.00 | 0.00 | 18 | 1014.6 |
| 20260904092516 | 67 | 254 | 0.0 | 0.0 | 0.00 | 0.00 | 0.00 | 18 | 1014.6 |
| 20260904092016 | 67 | 254 | 0.0 | 2.6 | 0.00 | 0.00 | 0.00 | 18 | 1014.6 |
| 20260904091516 | 67 | 254 | 0.0 | 1.7 | 0.00 | 0.00 | 0.00 | 18 | 1014.5 |
| 20260904091016 | 67 | 254 | 0.0 | 2.6 | 0.00 | 0.00 | 0.00 | 18 | 1014.5 |
| 20260904090516 | 66 | 254 | 0.0 | 1.7 | 0.00 | 0.00 | 0.00 | 18 | 1014.5 |
| 20260904090016 | 66 | 254 | 0.0 | 1.7 | 0.00 | 0.00 | 0.00 | 19 | 1014.5 |
| 20260904085516 | 66 | 254 | 0.0 | 0.0 | 0.00 | 0.00 | 0.00 | 19 | 1014.5 |
| 20260904085016 | 66 | 254 | 0.0 | 0.0 | 0.00 | 0.00 | 0.00 | 21 | 1014.4 |
| 20260904084516 | 66 | 254 | 0.0 | 0.0 | 0.00 | 0.00 | 0.00 | 20 | 1014.5 |
| 20260904084016 | 66 | 254 | 0.0 | 0.0 | 0.00 | 0.00 | 0.00 | 20 | 1014.4 |
| 20260904083516 | 67 | 254 | 0.0 | 0.0 | 0.00 | 0.00 | 0.00 | 21 | 1014.4 |
| 20260904083016 | 67 | 254 | 0.0 | 0.0 | 0.00 | 0.00 | 0.00 | 20 | 1014.4 |
| 20260904082516 | 67 | 254 | 0.0 | 0.0 | 0.00 | 0.00 | 0.00 | 20 | 1014.3 |
| 20260904082016 | 68 | 254 | 0.0 | 0.9 | 0.00 | 0.00 | 0.00 | 20 | 1014.2 |
| 20260904081516 | 68 | 254 | 0.0 | 2.6 | 0.00 | 0.00 | 0.00 | 20 | 1014.1 |
| 20260904081016 | 68 | 254 | 0.0 | 0.0 | 0.00 | 0.00 | 0.00 | 20 | 1014.1 |
| 20260904080516 | 68 | 254 | 0.0 | 2.6 | 0.00 | 0.00 | 0.00 | 19 | 1014.0 |
| 20260904080016 | 68 | 254 | 0.0 | 0.0 | 0.00 | 0.00 | 0.00 | 19 | 1014.0 |
| 20260904075516 | 68 | 254 | 0.0 | 0.0 | 0.00 | 0.00 | 0.00 | 18 | 1014.1 |
| 20260904075016 | 68 | 254 | 0.0 | 0.0 | 0.00 | 0.00 | 0.00 | 19 | 1014.2 |
| 20260904074516 | 69 | 254 | 0.0 | 0.0 | 0.00 | 0.00 | 0.00 | 19 | 1014.2 |
| 20260904074016 | 69 | 254 | 0.0 | 2.6 | 0.00 | 0.00 | 0.00 | 18 | 1014.1 |
| 20260904073516 | 69 | 254 | 0.0 | 0.0 | 0.00 | 0.00 | 0.00 | 18 | 1014.1 |
| 20260904073016 | 69 | 254 | 0.9 | 4.3 | 0.00 | 0.00 | 0.00 | 18 | 1014.0 |
| 20260904072516 | 69 | 254 | 0.9 | 2.6 | 0.00 | 0.00 | 0.00 | 18 | 1013.9 |
| 20260904072016 | 70 | 254 | 0.0 | 2.6 | 0.00 | 0.00 | 0.00 | 18 | 1013.8 |
| 20260904071516 | 70 | 254 | 0.0 | 2.6 | 0.00 | 0.00 | 0.00 | 18 | 1013.9 |
| 20260904071016 | 70 | 254 | 0.9 | 3.5 | 0.00 | 0.00 | 0.00 | 18 | 1013.8 |
| 20260904070517 | 70 | 257 | 0.9 | 6.1 | 0.00 | 0.00 | 0.00 | 18 | 1013.9 |
| 20260904070016 | 71 | 256 | 0.9 | 7.0 | 0.00 | 0.00 | 0.00 | 18 | 1013.9 |
| 20260904065516 | 71 | 259 | 0.0 | 3.5 | 0.00 | 0.00 | 0.00 | 18 | 1013.8 |
| 20260904065016 | 71 | 259 | 0.0 | 2.6 | 0.00 | 0.00 | 0.00 | 18 | 1013.9 |
| 20260904064516 | 71 | 259 | 0.9 | 4.3 | 0.00 | 0.00 | 0.00 | 18 | 1013.8 |
| 20260904064016 | 71 | 259 | 0.9 | 3.5 | 0.00 | 0.00 | 0.00 | 18 | 1013.7 |
| 20260904063516 | 71 | 259 | 0.9 | 4.3 | 0.00 | 0.00 | 0.00 | 18 | 1013.6 |
| 20260904063016 | 71 | 259 | 0.9 | 4.3 | 0.00 | 0.00 | 0.00 | 18 | 1013.6 |
| 20260904062516 | 71 | 260 | 0.9 | 4.3 | 0.00 | 0.00 | 0.00 | 18 | 1013.5 |
| 20260904062016 | 71 | 261 | 0.9 | 4.3 | 0.00 | 0.00 | 0.00 | 18 | 1013.5 |
| 20260904061516 | 72 | 264 | 0.9 | 3.5 | 0.00 | 0.00 | 0.00 | 18 | 1013.4 |